Pine Bluffs, WY

11:58 AM MST on March 01, 2017 (GMT -0700)
Pine Bluffs Muni, Pine Bluffs

Weather History for K82V - April, 2014

Change the Weather History Date:

Friday, April 25, 2014

  Actual Average (KCYS) Record (KCYS)
Temperature  
Mean Temperature 50 °F -  
Max Temperature 69 °F 58 °F 77 °F (1962)
Min Temperature 32 °F 33 °F 14 °F (1924)
Degree Days  
Heating Degree Days 14    
Moisture  
Dew Point 27 °F    
Average Humidity 39    
Maximum Humidity 75    
Minimum Humidity 17    
Precipitation  
Precipitation 0.00 in - - ()
Sea Level Pressure  
Sea Level Pressure 29.82 in    
Wind  
Wind Speed 8 mph (South)    
Max Wind Speed 23 mph    
Max Gust Speed 36 mph    
Visibility 10 miles    
Events      
Averages and records for this station are not official NWS values.
T = Trace of Precipitation, MM = Missing Value Source: NWS Daily Summary

Daily Weather History Graph

Daily Weather History Graph

Search for Another Location

Airport or City:

Trip Planner

Search our weather history database for the weather conditions in past years. The results will help you decide how hot, cold, wet, or windy it might be!

Date:

Astronomy

Apr. 25, 2014 Rise Set
Actual Time 6:02 AM MDT 7:47 PM MDT
Civil Twilight 5:32 AM MDT 8:16 PM MDT
Nautical Twilight 4:57 AM MDT 8:52 PM MDT
Astronomical Twilight 4:19 AM MDT 9:30 PM MDT
Moon 3:54 AM MDT (4/25) 4:10 PM MDT (4/25)
Length of Visible Light 14h 43m
Length of Day
13h 44m
Waning Crescent, 15% of the Moon is Illuminated
Apr 25
Waning Crescent
Apr 29
New
May 6
First Quarter
May 14
Full
May 21
Last Quarter

Hourly Weather History & Observations

Time (MDT) Temp. Windchill Dew Point Humidity Pressure Visibility Wind Dir Wind Speed Gust Speed Precip Events Conditions
12:15 AM 46.4 °F 41.5 °F 26.6 °F 46% 29.91 in 10.0 mi WSW 10.4 mph - N/A   Scattered Clouds
12:35 AM 46.4 °F 41.5 °F 26.6 °F 46% 29.91 in 10.0 mi WSW 10.4 mph - N/A   Clear
12:55 AM 44.6 °F 40.7 °F 26.6 °F 49% 29.92 in 10.0 mi West 6.9 mph - N/A   Clear
1:15 AM 42.8 °F 39.3 °F 26.6 °F 53% 29.92 in 10.0 mi West 5.8 mph - N/A   Clear
1:35 AM 41.0 °F 39.0 °F 26.6 °F 57% 29.93 in 10.0 mi WNW 3.5 mph - N/A   Clear
1:55 AM 41.0 °F - 26.6 °F 57% 29.92 in 10.0 mi Calm Calm - N/A   Clear
2:15 AM 39.2 °F 34.2 °F 26.6 °F 61% 29.92 in 10.0 mi WSW 6.9 mph - N/A   Clear
2:35 AM 35.6 °F 28.6 °F 26.6 °F 70% 29.92 in 10.0 mi West 9.2 mph - N/A   Clear
2:55 AM 37.4 °F 30.3 °F 26.6 °F 65% 29.91 in 10.0 mi WSW 10.4 mph - N/A   Clear
3:15 AM 39.2 °F 33.0 °F 26.6 °F 61% 29.90 in 10.0 mi West 9.2 mph - N/A   Clear
3:35 AM 37.4 °F 33.8 °F 26.6 °F 65% 29.90 in 10.0 mi West 4.6 mph - N/A   Clear
3:55 AM 37.4 °F 34.9 °F 24.8 °F 60% 29.91 in 10.0 mi NNW 3.5 mph - N/A   Clear
4:15 AM 37.4 °F 31.4 °F 26.6 °F 65% 29.90 in 10.0 mi NW 8.1 mph - N/A   Clear
4:35 AM 35.6 °F 29.2 °F 26.6 °F 70% 29.90 in 10.0 mi West 8.1 mph - N/A   Clear
4:55 AM 35.6 °F 31.7 °F 26.6 °F 70% 29.90 in 10.0 mi West 4.6 mph - N/A   Clear
5:15 AM 33.8 °F - 26.6 °F 75% 29.91 in 10.0 mi Calm Calm - N/A   Clear
5:35 AM 33.8 °F 28.6 °F 26.6 °F 75% 29.90 in 7.0 mi SW 5.8 mph - N/A   Clear
5:55 AM 33.8 °F - 24.8 °F 70% 29.90 in 10.0 mi Calm Calm - N/A   Clear
6:15 AM 32.0 °F - 24.8 °F 75% 29.91 in 10.0 mi Calm Calm - N/A   Clear
6:35 AM 32.0 °F 28.7 °F 24.8 °F 75% 29.91 in 10.0 mi South 3.5 mph - N/A   Clear
6:55 AM 35.6 °F - 26.6 °F 70% 29.91 in 10.0 mi Calm Calm - N/A   Clear
7:15 AM 37.4 °F - 28.4 °F 70% 29.92 in 4.0 mi Calm Calm - N/A   Haze
7:35 AM 42.8 °F - 28.4 °F 57% 29.92 in 10.0 mi Calm Calm - N/A   Clear
7:55 AM 44.6 °F - 28.4 °F 53% 29.92 in 10.0 mi Calm Calm - N/A   Clear
8:15 AM 46.4 °F - 28.4 °F 50% 29.91 in 10.0 mi Calm Calm - N/A   Clear
8:35 AM 50.0 °F - 28.4 °F 43% 29.91 in 10.0 mi Calm Calm - N/A   Clear
8:55 AM 53.6 °F - 28.4 °F 38% 29.90 in 10.0 mi NNE 4.6 mph - N/A   Clear
9:15 AM 53.6 °F - 28.4 °F 38% 29.90 in 10.0 mi NE 4.6 mph - N/A   Clear
9:35 AM 55.4 °F - 26.6 °F 33% 29.90 in 10.0 mi East 3.5 mph - N/A   Clear
9:55 AM 59.0 °F - 28.4 °F 31% 29.90 in 10.0 mi ESE 4.6 mph - N/A   Clear
10:15 AM 60.8 °F - 28.4 °F 29% 29.90 in 10.0 mi SSE 5.8 mph - N/A   Clear
10:35 AM 60.8 °F - 28.4 °F 29% 29.90 in 10.0 mi South 6.9 mph - N/A   Clear
10:55 AM 60.8 °F - 28.4 °F 29% 29.90 in 10.0 mi South 9.2 mph - N/A   Clear
11:15 AM 62.6 °F - 28.4 °F 27% 29.89 in 10.0 mi South 11.5 mph 16.1 mph N/A   Clear
11:35 AM 62.6 °F - 32.0 °F 32% 29.89 in 10.0 mi South 10.4 mph 17.3 mph N/A   Clear
11:55 AM 62.6 °F - 28.4 °F 27% 29.88 in 10.0 mi South 12.7 mph 17.3 mph N/A   Clear
12:15 PM 62.6 °F - 28.4 °F 27% 29.87 in 10.0 mi South 10.4 mph 16.1 mph N/A   Clear
12:35 PM 64.4 °F - 28.4 °F 26% 29.86 in 10.0 mi South 15.0 mph 18.4 mph N/A   Clear
12:55 PM 66.2 °F - 28.4 °F 24% 29.84 in 10.0 mi SSW 11.5 mph 21.9 mph N/A   Clear
1:15 PM 68.0 °F - 26.6 °F 21% 29.84 in 10.0 mi South 11.5 mph 20.7 mph N/A   Clear
1:35 PM 64.4 °F - 26.6 °F 24% 29.84 in 10.0 mi South 16.1 mph 20.7 mph N/A   Clear
1:55 PM 64.4 °F - 28.4 °F 26% 29.84 in 10.0 mi South 18.4 mph 25.3 mph N/A   Scattered Clouds
2:15 PM 66.2 °F - 28.4 °F 24% 29.83 in 10.0 mi South 15.0 mph 20.7 mph N/A   Clear
2:35 PM 68.0 °F - 26.6 °F 21% 29.82 in 10.0 mi South 16.1 mph 26.5 mph N/A   Clear
2:55 PM 68.0 °F - 30.2 °F 24% 29.80 in 10.0 mi SSE 13.8 mph 21.9 mph N/A   Clear
3:15 PM 68.0 °F - 28.4 °F 23% 29.79 in 10.0 mi SSE 15.0 mph 24.2 mph N/A   Clear
3:35 PM 69.8 °F - 26.6 °F 20% 29.78 in 10.0 mi SSE 10.4 mph 24.2 mph N/A   Clear
3:55 PM 69.8 °F - 28.4 °F 21% 29.77 in 10.0 mi SSE 17.3 mph - N/A   Clear
4:15 PM 69.8 °F - 26.6 °F 20% 29.76 in 10.0 mi SSE 17.3 mph 23.0 mph N/A   Clear
4:35 PM 69.8 °F - 26.6 °F 20% 29.75 in 10.0 mi South 15.0 mph 21.9 mph N/A   Scattered Clouds
4:55 PM 69.8 °F - 23.0 °F 17% 29.74 in 10.0 mi South 11.5 mph - N/A   Mostly Cloudy
5:15 PM 69.8 °F - 23.0 °F 17% 29.73 in 10.0 mi South 10.4 mph - N/A   Mostly Cloudy
5:35 PM 68.0 °F - 23.0 °F 18% 29.73 in 10.0 mi South 12.7 mph 16.1 mph N/A   Mostly Cloudy
5:55 PM 68.0 °F - 23.0 °F 18% 29.72 in 10.0 mi SSE 11.5 mph 19.6 mph N/A   Mostly Cloudy
6:15 PM 68.0 °F - 24.8 °F 20% 29.71 in 10.0 mi SSE 8.1 mph 16.1 mph N/A   Scattered Clouds
6:35 PM 64.4 °F - 26.6 °F 24% 29.70 in 10.0 mi SE 8.1 mph - N/A   Mostly Cloudy
6:55 PM 64.4 °F - 28.4 °F 26% 29.70 in 10.0 mi SE 5.8 mph - N/A   Scattered Clouds
7:15 PM 62.6 °F - 28.4 °F 27% 29.69 in 10.0 mi ESE 5.8 mph - N/A   Scattered Clouds
7:35 PM 60.8 °F - 26.6 °F 27% 29.68 in 10.0 mi ESE 9.2 mph - N/A   Scattered Clouds
7:55 PM 60.8 °F - 26.6 °F 27% 29.68 in 10.0 mi ESE 11.5 mph - N/A   Clear
8:15 PM 60.8 °F - 26.6 °F 27% 29.67 in 10.0 mi ESE 10.4 mph - N/A   Clear
8:35 PM 60.8 °F - 23.0 °F 23% 29.67 in 10.0 mi SE 16.1 mph - N/A   Clear
8:55 PM 60.8 °F - 23.0 °F 23% 29.68 in 10.0 mi SE 15.0 mph 18.4 mph N/A   Clear
9:15 PM 59.0 °F - 24.8 °F 27% 29.68 in 7.0 mi SE 17.3 mph 21.9 mph N/A   Clear
9:35 PM 59.0 °F - 26.6 °F 29% 29.67 in 10.0 mi SE 21.9 mph 27.6 mph N/A   Clear
9:55 PM 59.0 °F - 26.6 °F 29% 29.66 in 10.0 mi SSE 23.0 mph 33.4 mph N/A   Clear
10:15 PM 57.2 °F - 26.6 °F 31% 29.66 in 10.0 mi SSE 23.0 mph 35.7 mph N/A   Clear
10:35 PM 55.4 °F - 26.6 °F 33% 29.66 in 10.0 mi SSE 20.7 mph 32.2 mph N/A   Clear
10:55 PM 55.4 °F - 26.6 °F 33% 29.66 in 10.0 mi SSE 18.4 mph 28.8 mph N/A   Clear
11:15 PM 53.6 °F - 26.6 °F 35% 29.66 in 10.0 mi SSE 13.8 mph 18.4 mph N/A   Clear
11:35 PM 51.8 °F - 26.6 °F 38% 29.67 in 10.0 mi South 10.4 mph 19.6 mph N/A   Clear
11:55 PM 50.0 °F - 28.4 °F 43% 29.68 in 10.0 mi SW 9.2 mph - N/A   Clear